Leadville, CO

11:07 AM MDT on June 29, 2017 (GMT -0600)
Lake County

Weather History for KLXV - February, 2013

Change the Weather History Date:

Saturday, February 9, 2013

  Actual Average Record
Temperature  
Mean Temperature 15 °F -  
Max Temperature 24 °F 31 °F 51 °F (1987)
Min Temperature 6 °F 4 °F -20 °F (2011)
Degree Days  
Heating Degree Days 50 48  
Month to date heating degree days 413 432  
Since 1 July heating degree days 6503 6829  
Cooling Degree Days 0 0  
Month to date cooling degree days 0 0  
Year to date cooling degree days 0 0  
Moisture  
Dew Point 10 °F    
Average Humidity 63    
Maximum Humidity 84    
Minimum Humidity 41    
Precipitation  
Precipitation 0.07 in 0.03 in 0.23 in (2014)
Month to date precipitation 0.10 0.21  
Year to date precipitation 0.77 0.83  
Sea Level Pressure  
Sea Level Pressure 29.49 in    
Wind  
Wind Speed 10 mph (NNE)    
Max Wind Speed 21 mph    
Max Gust Speed 30 mph    
Visibility 6 miles    
Events Fog , Snow    
T = Trace of Precipitation, MM = Missing Value Source: NWS Daily Summary

Daily Weather History Graph

Daily Weather History Graph

Search for Another Location

Airport or City:

Trip Planner

Search our weather history database for the weather conditions in past years. The results will help you decide how hot, cold, wet, or windy it might be!

Date:

Astronomy

Feb. 09, 2013 Rise Set
Actual Time 7:03 AM MST 5:35 PM MST
Civil Twilight 6:35 AM MST 6:03 PM MST
Nautical Twilight 6:04 AM MST 6:35 PM MST
Astronomical Twilight 5:33 AM MST 7:06 PM MST
Moon 6:17 AM MST (2/9) 5:21 PM MST (2/9)
Length of Visible Light 11h 27m
Length of Day
10h 32m
Waning Crescent, 0% of the Moon is Illuminated
Feb 9
Waning Crescent
Feb 10
New
Feb 17
First Quarter
Feb 25
Full
Mar 4
Last Quarter

Hourly Weather History & Observations

Time (MST) Temp. Windchill Dew Point Humidity Pressure Visibility Wind Dir Wind Speed Gust Speed Precip Events Conditions
12:31 AM 21.2 °F 9.5 °F 19.4 °F 93% 29.69 in 3.0 mi SE 11.5 mph 23.0 mph 0.00 in Snow Light Snow
12:53 AM 21.9 °F 7.8 °F 18.0 °F 85% 29.54 in 2.0 mi SSE 17.3 mph 23.0 mph 0.00 in Snow Light Snow
1:00 AM 21.2 °F 7.3 °F 17.6 °F 86% 29.69 in 1.8 mi SSE 16.1 mph 23.0 mph 0.01 in Snow Light Snow
1:04 AM 21.2 °F 6.8 °F 17.6 °F 86% 29.69 in 3.0 mi SSE 17.3 mph 24.2 mph 0.01 in Snow Light Snow
1:11 AM 21.2 °F 6.4 °F 17.6 °F 86% 29.69 in 1.8 mi SSE 18.4 mph 29.9 mph 0.01 in Snow Light Snow
1:23 AM 21.2 °F 10.1 °F 17.6 °F 86% 29.69 in 3.0 mi SSE 10.4 mph 23.0 mph 0.01 in Snow Light Snow
1:53 AM 23.0 °F 13.1 °F 12.9 °F 65% 29.51 in 10.0 mi SSE 9.2 mph - 0.01 in   Overcast
2:53 AM 23.0 °F 11.7 °F 12.9 °F 65% 29.48 in 10.0 mi SSE 11.5 mph 21.9 mph 0.00 in   Overcast
3:53 AM 21.9 °F 11.0 °F 12.0 °F 66% 29.48 in 10.0 mi South 10.4 mph - 0.00 in   Overcast
4:53 AM 23.0 °F 11.7 °F 9.0 °F 55% 29.46 in 10.0 mi SSE 11.5 mph 24.2 mph N/A   Overcast
5:53 AM 21.9 °F 9.2 °F 9.0 °F 58% 29.44 in 10.0 mi SSE 13.8 mph 21.9 mph N/A   Overcast
6:53 AM 21.0 °F 10.6 °F 9.0 °F 60% 29.43 in 10.0 mi SSE 9.2 mph - N/A   Overcast
7:53 AM 21.9 °F 11.0 °F 6.1 °F 51% 29.41 in 10.0 mi SE 10.4 mph - N/A   Overcast
8:53 AM 21.9 °F 9.2 °F 7.0 °F 53% 29.38 in 10.0 mi SSE 13.8 mph 20.7 mph N/A   Overcast
9:53 AM 21.9 °F 8.2 °F 8.1 °F 55% 29.38 in 10.0 mi SSE 16.1 mph 26.5 mph 0.00 in   Overcast
10:53 AM 17.1 °F 5.0 °F 12.9 °F 84% 29.42 in 2.5 mi SSW 10.4 mph 21.9 mph 0.00 in Snow Light Snow
11:01 AM 15.8 °F 0.9 °F 12.2 °F 86% 29.51 in 0.8 mi WNW 15.0 mph 21.9 mph 0.00 in Snow Light Snow
11:08 AM 15.8 °F 1.4 °F 12.2 °F 86% 29.52 in 0.2 mi NW 13.8 mph 20.7 mph 0.00 in Fog , Snow Heavy Snow
11:14 AM 15.8 °F 3.4 °F 12.2 °F 86% 29.52 in 0.2 mi NW 10.4 mph - 0.01 in Fog , Snow Heavy Snow
11:41 AM 15.8 °F 6.1 °F 12.2 °F 86% 29.52 in 0.2 mi NNE 6.9 mph - 0.04 in Fog , Snow Light Snow
11:45 AM 15.8 °F 7.2 °F 12.2 °F 86% 29.52 in 0.8 mi NE 5.8 mph - 0.05 in Snow Light Snow
11:53 AM 17.1 °F 7.6 °F 12.0 °F 81% 29.43 in 1.0 mi NNE 6.9 mph - 0.05 in Snow Light Snow
12:06 PM 17.6 °F 8.2 °F 12.2 °F 79% 29.51 in 2.5 mi ENE 6.9 mph - 0.00 in Snow Light Snow
12:13 PM 17.6 °F 7.3 °F 12.2 °F 79% 29.50 in 7.0 mi NE 8.1 mph - 0.00 in Snow Light Snow
12:53 PM 21.0 °F 11.4 °F 10.0 °F 63% 29.39 in 10.0 mi NNW 8.1 mph - 0.00 in   Overcast
1:53 PM 21.0 °F 13.4 °F 7.0 °F 55% 29.37 in 7.0 mi North 5.8 mph - 0.00 in Snow Light Snow
2:53 PM 21.0 °F 8.1 °F 5.0 °F 50% 29.35 in 10.0 mi NNW 13.8 mph 19.6 mph 0.00 in   Scattered Clouds
3:53 PM 21.0 °F 12.4 °F 1.0 °F 42% 29.35 in 10.0 mi WNW 6.9 mph - N/A   Scattered Clouds
4:53 PM 15.1 °F 1.8 °F 8.1 °F 74% 29.39 in 9.0 mi North 11.5 mph 19.6 mph N/A   Mostly Cloudy
5:25 PM 15.8 °F 3.4 °F 8.6 °F 73% 29.47 in 1.8 mi NNW 10.4 mph - 0.00 in Snow Light Snow
5:40 PM 14.0 °F 2.0 °F 10.4 °F 86% 29.46 in 5.0 mi WNW 9.2 mph - 0.01 in   Overcast
5:53 PM 14.0 °F 2.0 °F 10.0 °F 84% 29.40 in 3.0 mi WNW 9.2 mph - 0.01 in Snow Light Snow
6:41 PM 12.2 °F 1.7 °F 6.8 °F 79% 29.48 in 9.0 mi NNW 6.9 mph - 0.00 in Snow Light Snow
6:53 PM 12.9 °F 2.6 °F 8.1 °F 81% 29.44 in 8.0 mi North 6.9 mph - 0.00 in   Overcast
7:53 PM 12.9 °F -3.4 °F 3.9 °F 67% 29.43 in 10.0 mi North 16.1 mph 23.0 mph N/A   Overcast
8:53 PM 12.0 °F -3.4 °F 1.9 °F 64% 29.46 in 10.0 mi North 13.8 mph - N/A   Mostly Cloudy
9:53 PM 8.1 °F -2.0 °F 1.0 °F 73% 29.50 in 10.0 mi NW 5.8 mph - N/A   Clear
10:11 PM 6.8 °F -4.8 °F 1.4 °F 79% 29.52 in 10.0 mi NW 6.9 mph - N/A   Mostly Cloudy
10:53 PM 7.0 °F - 1.9 °F 80% 29.56 in 5.0 mi Calm Calm - 0.00 in Snow Light Snow
11:38 PM 8.6 °F - 3.2 °F 79% 29.55 in 1.8 mi Calm Calm - 0.00 in Snow Light Snow
11:48 PM 8.6 °F - 3.2 °F 79% 29.56 in 1.5 mi Calm Calm - 0.00 in Snow Light Snow
11:53 PM 8.1 °F 1.4 °F 3.9 °F 83% 29.58 in 1.8 mi NE 3.5 mph - 0.00 in Snow Light Snow